KM4NDN Weather Reports


time (UTC)temp
C
wind
direction
speed
KPH
gust
KPH
rain 1hr
cm
rain 24hr
cm
rain mn
cm
humidity
%
barometer
mb
20260508185201 14 192 22.5 24.1 0.00 0.00 0.00 67 1009.1
20260508184658 14 244 20.9 24.1 0.00 0.00 0.00 66 1009.3
20260508184155 15 262 11.3 20.9 0.00 0.00 0.00 68 1009.2
20260508183652 15 238 14.5 17.7 0.00 0.00 0.00 68 1009.1
20260508183148 15 220 14.5 16.1 0.00 0.00 0.00 67 1009.0
20260508182644 14 207 17.7 22.5 0.00 0.00 0.00 66 1009.3
20260508182141 14 244 14.5 22.5 0.00 0.00 0.00 63 1009.2
20260508181636 14 230 9.7 25.7 0.00 0.00 0.00 66 1009.4
20260508181134 15 224 16.1 22.5 0.00 0.00 0.00 63 1009.5
20260508180630 15 212 8.0 17.7 0.00 0.00 0.00 64 1009.2
20260508180127 14 166 4.8 20.9 0.00 0.00 0.00 66 1009.2
20260508175624 15 208 11.3 22.5 0.00 0.00 0.00 64 1009.3
20260508175121 15 193 12.9 20.9 0.00 0.00 0.00 65 1009.3
20260508174618 14 195 12.9 16.1 0.00 0.00 0.00 67 1009.4
20260508174115 14 216 11.3 17.7 0.00 0.00 0.00 67 1009.6
20260508173612 14 229 12.9 16.1 0.00 0.00 0.00 67 1009.6
20260508173108 14 237 12.9 20.9 0.00 0.00 0.00 63 1009.5
20260508172606 13 219 14.5 17.7 0.00 0.00 0.00 71 1009.7
20260508172102 14 242 12.9 14.5 0.00 0.00 0.00 68 1009.7
20260508171558 13 243 14.5 14.5 0.00 0.00 0.00 69 1010.1
20260508171055 13 265 14.5 16.1 0.00 0.00 0.00 71 1010.0
20260508170552 13 228 9.7 17.7 0.00 0.00 0.00 70 1010.4
20260508170049 13 243 17.7 20.9 0.00 0.00 0.00 68 1010.4
20260508165547 13 239 14.5 20.9 0.00 0.00 0.00 70 1010.4
20260508165043 12 221 9.7 11.3 0.00 0.00 0.00 73 1010.4
20260508164540 12 226 9.7 14.5 0.00 0.00 0.00 71 1010.5
20260508164037 12 232 16.1 22.5 0.00 0.00 0.00 71 1010.6
20260508163534 12 212 17.7 22.5 0.00 0.00 0.00 70 1010.8
20260508163031 12 233 8.0 14.5 0.00 0.00 0.00 71 1010.8
20260508162528 12 234 8.0 14.5 0.00 0.00 0.00 72 1010.8
20260508162025 12 268 12.9 14.5 0.00 0.00 0.00 70 1010.7
20260508161522 12 261 9.7 14.5 0.00 0.00 0.00 70 1010.8
20260508161019 12 254 14.5 17.7 0.00 0.00 0.00 69 1010.7
20260508160517 12 187 12.9 16.1 0.00 0.00 0.00 70 1010.8
20260508160014 12 225 14.5 22.5 0.00 0.00 0.00 69 1010.8
20260508155511 12 231 11.3 16.1 0.00 0.00 0.00 70 1010.6
20260508155008 12 182 11.3 20.9 0.00 0.00 0.00 69 1010.7
20260508154505 12 242 14.5 22.5 0.00 0.00 0.00 69 1010.6
20260508154002 12 241 6.4 14.5 0.00 0.00 0.00 69 1010.7
20260508153458 12 258 17.7 22.5 0.00 0.00 0.00 69 1010.8
20260508152955 12 244 11.3 16.1 0.00 0.00 0.00 68 1010.6
20260508152452 12 176 6.4 12.9 0.00 0.00 0.00 71 1010.7
20260508151948 12 251 6.4 12.9 0.00 0.00 0.00 69 1010.6
20260508151445 13 203 9.7 20.9 0.00 0.00 0.00 68 1010.7
20260508150941 12 269 12.9 20.9 0.00 0.00 0.00 68 1010.7
20260508150438 12 217 8.0 12.9 0.00 0.00 0.00 69 1010.4
20260508145933 12 240 16.1 20.9 0.00 0.00 0.00 67 1010.5
20260508145431 12 218 9.7 14.5 0.00 0.00 0.00 69 1010.7
20260508144927 12 249 16.1 20.9 0.00 0.00 0.00 68 1010.6
20260508144425 12 267 6.4 9.7 0.00 0.00 0.00 70 1010.6
20260508143922 12 268 8.0 16.1 0.00 0.00 0.00 70 1010.8
20260508143420 12 202 14.5 16.1 0.00 0.00 0.00 69 1010.6
20260508142916 12 234 8.0 12.9 0.00 0.00 0.00 69 1010.7
20260508142413 12 230 8.0 12.9 0.00 0.00 0.00 70 1010.8
20260508141909 12 242 9.7 17.7 0.00 0.00 0.00 69 1010.5
20260508141406 12 268 16.1 16.1 0.00 0.00 0.00 68 1010.7
20260508140904 12 251 8.0 12.9 0.00 0.00 0.00 70 1010.8
20260508140401 12 245 9.7 20.9 0.00 0.00 0.00 70 1010.8
20260508135856 12 256 6.4 20.9 0.00 0.00 0.00 69 1010.6
20260508135353 12 185 12.9 17.7 0.00 0.00 0.00 68 1010.9
20260508134849 12 250 16.1 16.1 0.00 0.00 0.00 69 1010.8
20260508134346 12 270 9.7 16.1 0.00 0.00 0.00 70 1010.8
20260508133842 11 268 9.7 11.3 0.00 0.00 0.00 71 1011.0
20260508133341 11 281 11.3 17.7 0.00 0.00 0.00 70 1010.7
20260508132837 11 243 14.5 24.1 0.00 0.00 0.00 70 1010.8
20260508132335 11 223 12.9 25.7 0.00 0.00 0.00 70 1010.8
20260508131832 11 246 19.3 24.1 0.00 0.00 0.00 71 1010.9
20260508131327 11 244 14.5 16.1 0.00 0.00 0.00 73 1010.7
20260508130824 10 271 11.3 14.5 0.00 0.00 0.00 73 1010.7
20260508130321 10 252 17.7 22.5 0.00 0.00 0.00 72 1010.9
20260508125817 10 269 12.9 17.7 0.00 0.00 0.00 74 1010.9
20260508125314 10 271 9.7 20.9 0.00 0.00 0.00 73 1011.0
20260508124812 10 276 14.5 16.1 0.00 0.00 0.00 73 1010.7
20260508124308 10 243 11.3 20.9 0.00 0.00 0.00 73 1011.0
20260508123807 10 243 16.1 25.7 0.00 0.00 0.00 71 1010.9
20260508123305 10 244 8.0 16.1 0.00 0.00 0.00 72 1011.3
20260508122800 10 237 14.5 20.9 0.00 0.00 0.00 71 1010.8
20260508122258 10 240 11.3 17.7 0.00 0.00 0.00 71 1011.2
20260508121755 10 241 14.5 16.1 0.00 0.00 0.00 71 1010.6
20260508121253 10 246 14.5 20.9 0.00 0.00 0.00 70 1010.6
20260508120750 10 245 16.1 20.9 0.00 0.00 0.00 71 1010.9
20260508120248 10 223 9.7 11.3 0.00 0.00 0.00 71 1010.8
20260508115745 10 227 11.3 16.1 0.00 0.00 0.00 71 1010.5
20260508115243 9 242 11.3 12.9 0.00 0.00 0.00 73 1010.5
20260508114739 9 235 8.0 11.3 0.00 0.00 0.00 73 1010.3
20260508114236 9 241 11.3 12.9 0.00 0.00 0.00 73 1010.5
20260508113732 9 221 9.7 16.1 0.00 0.00 0.00 73 1010.5
20260508113231 9 164 4.8 12.9 0.00 0.00 0.00 73 1010.1
20260508112727 9 215 9.7 12.9 0.00 0.00 0.00 73 1010.2
20260508112224 8 174 9.7 14.5 0.00 0.00 0.00 74 1010.2
20260508111720 8 214 9.7 12.9 0.00 0.00 0.00 75 1010.1
20260508111218 8 180 6.4 9.7 0.00 0.00 0.00 76 1009.9
20260508110715 8 206 4.8 9.7 0.00 0.00 0.00 76 1009.8
20260508110212 8 177 6.4 9.7 0.00 0.00 0.00 76 1009.9
20260508105712 8 186 6.4 11.3 0.00 0.00 0.00 75 1009.8
20260508105209 8 178 4.8 9.7 0.00 0.00 0.00 75 1010.1
20260508104707 8 171 4.8 9.7 0.00 0.00 0.00 74 1010.1
20260508104203 8 221 6.4 12.9 0.00 0.00 0.00 74 1010.1
20260508103700 8 192 4.8 6.4 0.00 0.00 0.00 74 1010.0
20260508103157 8 214 4.8 9.7 0.00 0.00 0.00 73 1010.0
20260508102655 9 225 8.0 9.7 0.00 0.00 0.00 72 1009.8
20260508102153 9 197 6.4 9.7 0.00 0.00 0.00 71 1009.9
20260508101649 9 192 6.4 9.7 0.00 0.00 0.00 71 1010.0
20260508101147 9 222 6.4 12.9 0.00 0.00 0.00 71 1009.9
20260508100644 9 236 8.0 12.9 0.00 0.00 0.00 71 1010.0
20260508100142 9 213 4.8 12.9 0.00 0.00 0.00 73 1009.9
20260508095639 9 232 8.0 12.9 0.00 0.00 0.00 73 1009.7
20260508095136 9 216 6.4 9.7 0.00 0.00 0.00 74 1009.8
20260508094632 9 221 9.7 12.9 0.00 0.00 0.00 74 1009.8
20260508094129 9 218 8.0 14.5 0.00 0.00 0.00 73 1009.9
20260508093627 9 254 14.5 24.1 0.00 0.00 0.00 72 1009.9
20260508093124 9 223 11.3 14.5 0.00 0.00 0.00 73 1009.8
20260508092621 9 202 14.5 22.5 0.00 0.00 0.00 74 1010.2
20260508092120 8 215 11.3 16.1 0.00 0.00 0.00 76 1010.1
20260508091616 8 203 6.4 9.7 0.00 0.00 0.00 77 1010.1
20260508091113 8 213 9.7 11.3 0.00 0.00 0.00 77 1010.2
20260508090612 8 212 4.8 9.7 0.00 0.00 0.00 77 1010.2
20260508090109 8 201 6.4 11.3 0.00 0.00 0.00 77 1010.1
20260508085605 8 234 6.4 9.7 0.00 0.00 0.00 78 1010.1
20260508085102 8 216 4.8 9.7 0.00 0.00 0.00 77 1010.1
20260508084558 8 159 8.0 11.3 0.00 0.00 0.00 77 1010.0
20260508084056 8 200 8.0 11.3 0.00 0.00 0.00 76 1010.0
20260508083553 8 208 12.9 12.9 0.00 0.00 0.00 77 1010.2
20260508083050 8 233 9.7 16.1 0.00 0.00 0.00 79 1009.9
20260508082546 8 199 8.0 9.7 0.00 0.00 0.00 81 1010.2
20260508082043 7 209 3.2 9.7 0.00 0.00 0.00 82 1010.1
20260508081541 7 219 4.8 6.4 0.00 0.00 0.00 82 1010.0
20260508081036 7 207 4.8 6.4 0.00 0.00 0.00 83 1010.3
20260508080534 7 161 1.6 6.4 0.00 0.00 0.00 83 1010.2
20260508080031 7 203 4.8 9.7 0.00 0.00 0.00 83 1010.2
20260508075528 7 176 4.8 9.7 0.00 0.00 0.00 83 1010.2
20260508075025 7 211 6.4 9.7 0.00 0.00 0.00 83 1010.2
20260508074523 7 200 6.4 9.7 0.00 0.00 0.00 83 1010.3
20260508074020 7 222 4.8 12.9 0.00 0.00 0.00 83 1010.3
20260508073517 7 221 4.8 9.7 0.00 0.00 0.00 83 1010.3
20260508073015 7 188 3.2 6.4 0.00 0.00 0.00 82 1010.2
20260508072510 7 205 6.4 11.3 0.00 0.00 0.00 83 1010.4
20260508072008 7 200 6.4 9.7 0.00 0.00 0.00 82 1010.3
20260508071505 7 202 4.8 4.8 0.00 0.00 0.00 82 1010.3
20260508071003 7 202 8.0 9.7 0.00 0.00 0.00 81 1010.7
20260508070500 7 209 6.4 12.9 0.00 0.00 0.00 81 1010.6
20260508065958 7 178 8.0 14.5 0.00 0.00 0.00 80 1010.5
20260508065456 8 219 11.3 12.9 0.00 0.00 0.00 79 1010.3
20260508064954 8 214 9.7 14.5 0.00 0.00 0.00 78 1010.5
20260508064451 8 233 6.4 6.4 0.00 0.00 0.00 77 1010.5
20260508063949 8 226 9.7 12.9 0.00 0.00 0.00 76 1010.6
20260508063446 8 244 8.0 11.3 0.00 0.00 0.00 75 1010.6
20260508062944 8 211 12.9 17.7 0.00 0.00 0.00 75 1010.6
20260508062441 8 211 17.7 24.1 0.00 0.00 0.00 74 1010.7
20260508061938 8 239 16.1 20.9 0.00 0.00 0.00 74 1010.5
20260508061436 8 239 6.4 20.9 0.00 0.00 0.00 73 1010.8
20260508060931 8 208 14.5 17.7 0.00 0.00 0.00 72 1010.6
20260508060429 9 212 14.5 25.7 0.00 0.00 0.00 71 1010.7
20260508055925 9 229 12.9 22.5 0.00 0.00 0.00 70 1010.6
20260508055422 9 239 9.7 16.1 0.00 0.00 0.00 70 1010.6
20260508054918 9 232 8.0 16.1 0.00 0.00 0.00 69 1010.8
20260508054416 9 230 12.9 16.1 0.00 0.00 0.00 68 1010.8
20260508053913 10 201 11.3 17.7 0.00 0.00 0.00 67 1010.8
20260508053410 10 239 9.7 14.5 0.00 0.00 0.00 66 1010.5
20260508052907 10 191 11.3 20.9 0.00 0.00 0.00 65 1010.6
20260508052405 10 232 14.5 24.1 0.00 0.00 0.00 65 1010.7
20260508051900 10 244 6.4 20.9 0.00 0.00 0.00 65 1010.8
20260508051356 9 186 8.0 16.1 0.00 0.00 0.00 66 1010.9
20260508050852 9 185 11.3 12.9 0.00 0.00 0.00 67 1011.2
20260508050350 9 190 14.5 14.5 0.00 0.00 0.00 66 1010.9
20260508045845 8 223 11.3 12.9 0.00 0.00 0.00 68 1010.8
20260508045344 8 222 6.4 14.5 0.00 0.00 0.00 70 1011.0
20260508044841 8 187 4.8 4.8 0.00 0.00 0.00 72 1011.0
20260508044337 8 167 3.2 4.8 0.00 0.00 0.00 72 1011.0
20260508043833 8 198 4.8 4.8 0.00 0.00 0.00 71 1011.0
20260508043331 8 188 3.2 3.2 0.00 0.00 0.00 71 1011.0
20260508042827 8 188 1.6 4.8 0.00 0.00 0.00 70 1011.0
20260508042325 8 193 3.2 6.4 0.00 0.00 0.00 70 1011.2
20260508041821 8 185 3.2 4.8 0.00 0.00 0.00 70 1010.9
20260508041318 8 177 3.2 4.8 0.00 0.00 0.00 69 1010.9
20260508040814 8 186 0.0 3.2 0.00 0.00 0.00 68 1011.0
20260508040312 8 160 1.6 4.8 0.00 0.00 0.00 68 1011.2
20260508035809 8 188 1.6 3.2 0.00 0.00 0.00 68 1011.2
20260508035307 8 194 3.2 6.4 0.00 0.00 0.00 67 1011.0
20260508034803 9 199 3.2 4.8 0.00 0.00 0.00 66 1011.3
20260508034300 9 199 3.2 4.8 0.00 0.00 0.00 66 1011.2
20260508033757 9 197 1.6 3.2 0.00 0.00 0.00 66 1011.2
20260508033255 9 208 3.2 9.7 0.00 0.00 0.00 65 1011.2
20260508032753 9 162 6.4 9.7 0.00 0.00 0.00 65 1011.2
20260508032250 9 198 3.2 6.4 0.00 0.00 0.00 64 1011.2
20260508031746 10 225 11.3 11.3 0.00 0.00 0.00 63 1011.4
20260508031243 10 222 9.7 12.9 0.00 0.00 0.00 63 1011.2
20260508030739 10 206 8.0 11.3 0.00 0.00 0.00 62 1011.3
20260508030237 10 218 3.2 9.7 0.00 0.00 0.00 62 1011.5
20260508025733 10 235 9.7 12.9 0.00 0.00 0.00 61 1011.6
20260508025230 10 185 6.4 9.7 0.00 0.00 0.00 61 1011.7
20260508024726 10 193 9.7 11.3 0.00 0.00 0.00 60 1011.6
20260508024223 10 205 4.8 12.9 0.00 0.00 0.00 60 1011.6
20260508023720 10 227 8.0 11.3 0.00 0.00 0.00 60 1011.6
20260508023218 10 204 9.7 14.5 0.00 0.00 0.00 59 1011.6
20260508022713 10 231 8.0 12.9 0.00 0.00 0.00 59 1011.6
20260508022210 10 221 14.5 16.1 0.00 0.00 0.00 57 1011.6
20260508021707 10 226 11.3 17.7 0.00 0.00 0.00 57 1011.5
20260508021202 10 207 9.7 20.9 0.00 0.00 0.00 56 1011.4
20260508020700 10 233 19.3 25.7 0.00 0.00 0.00 55 1011.5
20260508020157 11 212 17.7 25.7 0.00 0.00 0.00 53 1011.5
20260508015654 11 241 19.3 25.7 0.00 0.00 0.00 52 1011.5
20260508015151 11 246 14.5 17.7 0.00 0.00 0.00 52 1011.5
20260508014648 11 250 11.3 17.7 0.00 0.00 0.00 52 1011.5
20260508014143 11 254 11.3 22.5 0.00 0.00 0.00 51 1011.3
20260508013640 11 223 9.7 17.7 0.00 0.00 0.00 50 1011.4
20260508013137 11 252 14.5 16.1 0.00 0.00 0.00 49 1011.3
20260508012635 11 249 11.3 16.1 0.00 0.00 0.00 49 1010.9
20260508012132 11 233 9.7 16.1 0.00 0.00 0.00 48 1010.9
20260508011630 11 232 16.1 22.5 0.00 0.00 0.00 47 1010.9
20260508011127 11 254 12.9 16.1 0.00 0.00 0.00 47 1010.8
20260508010623 12 213 14.5 22.5 0.00 0.00 0.00 45 1010.7
20260508010122 11 229 16.1 17.7 0.00 0.00 0.00 45 1010.7
20260508005618 11 252 6.4 11.3 0.00 0.00 0.00 47 1010.7
20260508005114 11 230 6.4 6.4 0.00 0.00 0.00 53 1010.7
20260508004610 11 176 3.2 3.2 0.00 0.00 0.00 60 1010.6
20260508004108 11 307 3.2 3.2 0.00 0.00 0.00 59 1010.7
20260508003604 10 307 3.2 3.2 0.00 0.00 0.00 60 1010.8
20260508003101 10 307 1.6 1.6 0.00 0.00 0.00 60 1010.5
20260508002557 10 308 0.0 0.0 0.00 0.00 0.00 54 1010.5
20260508002055 10 308 0.0 1.6 0.00 0.00 0.00 56 1010.4
20260508001550 10 308 1.6 1.6 0.00 0.00 0.00 56 1010.6
20260508001047 10 308 1.6 1.6 0.00 0.00 0.00 54 1010.2
20260508000543 11 308 0.0 0.0 0.00 0.00 0.00 53 1010.3
20260508000040 11 308 0.0 0.0 0.00 0.00 0.00 52 1010.4
20260507235537 11 308 0.0 0.0 0.00 0.00 0.00 51 1010.4
20260507235034 12 308 1.6 1.6 0.00 0.00 0.00 49 1010.4
20260507234531 12 308 0.0 0.0 0.00 0.00 0.00 47 1010.3
20260507234027 12 307 0.0 0.0 0.00 0.00 0.00 45 1010.3
20260507233524 13 308 1.6 1.6 0.00 0.00 0.00 42 1010.4
20260507233023 13 308 3.2 3.2 0.00 0.00 0.00 41 1010.6
20260507232518 13 308 0.0 0.0 0.00 0.00 0.00 45 1010.3
20260507232016 12 328 3.2 3.2 0.00 0.00 0.00 45 1010.5
20260507231512 12 337 0.0 0.0 0.00 0.00 0.00 44 1010.5
20260507231010 12 337 3.2 4.8 0.00 0.00 0.00 44 1010.3
20260507230507 12 351 4.8 4.8 0.00 0.00 0.00 44 1010.5
20260507230002 12 339 4.8 9.7 0.00 0.00 0.00 43 1010.5
20260507225458 13 329 4.8 6.4 0.00 0.00 0.00 42 1010.4
20260507224954 13 321 6.4 14.5 0.00 0.00 0.00 41 1010.8
20260507224450 13 326 8.0 11.3 0.00 0.00 0.00 40 1010.8
20260507223947 13 297 6.4 12.9 0.00 0.00 0.00 38 1010.7
20260507223443 13 309 9.7 11.3 0.00 0.00 0.00 37 1010.5
20260507222940 13 303 6.4 14.5 0.00 0.00 0.00 38 1010.5
20260507222437 13 325 8.0 12.9 0.00 0.00 0.00 39 1010.5
20260507221934 13 261 3.2 6.4 0.00 0.00 0.00 40 1010.7
20260507221430 13 323 9.7 12.9 0.00 0.00 0.00 38 1010.8
20260507220926 13 304 6.4 16.1 0.00 0.00 0.00 40 1010.7
20260507220424 13 286 4.8 16.1 0.00 0.00 0.00 41 1010.7
20260507215921 13 280 11.3 14.5 0.00 0.00 0.00 38 1010.6
20260507215418 13 293 11.3 12.9 0.00 0.00 0.00 36 1010.4
20260507214915 12 260 8.0 11.3 0.00 0.00 0.00 37 1010.3
20260507214413 12 264 4.8 11.3 0.00 0.00 0.00 39 1010.5
20260507213908 13 284 9.7 22.5 0.00 0.00 0.00 37 1010.5
20260507213404 13 261 6.4 14.5 0.00 0.00 0.00 38 1010.5
20260507212901 13 315 8.0 16.1 0.00 0.00 0.00 37 1010.4
20260507212357 13 302 14.5 22.5 0.00 0.00 0.00 36 1010.4
20260507211854 13 301 14.5 20.9 0.00 0.00 0.00 35 1010.3
20260507211350 12 295 9.7 12.9 0.00 0.00 0.00 37 1010.5
20260507210848 12 234 6.4 22.5 0.00 0.00 0.00 39 1010.7
20260507210344 13 279 17.7 27.4 0.00 0.00 0.00 36 1010.4
20260507205841 13 272 9.7 14.5 0.00 0.00 0.00 37 1010.4
20260507205338 13 295 14.5 14.5 0.00 0.00 0.00 35 1010.5
20260507204834 13 293 12.9 17.7 0.00 0.00 0.00 38 1010.5
20260507204331 13 279 6.4 17.7 0.00 0.00 0.00 42 1010.5
20260507203829 13 270 6.4 9.7 0.00 0.00 0.00 42 1010.3
20260507203327 13 310 8.0 14.5 0.00 0.00 0.00 43 1010.4
20260507202823 12 268 17.7 20.9 0.00 0.00 0.00 37 1010.4
20260507202319 13 269 19.3 29.0 0.00 0.00 0.00 37 1010.6
20260507201815 13 326 11.3 17.7 0.00 0.00 0.00 38 1010.5
20260507201311 13 295 8.0 11.3 0.00 0.00 0.00 36 1010.5
20260507200807 14 261 16.1 20.9 0.00 0.00 0.00 35 1010.5
20260507200303 13 273 1.6 6.4 0.00 0.00 0.00 39 1010.4
20260507195759 13 249 12.9 14.5 0.00 0.00 0.00 37 1010.6
20260507195257 13 284 9.7 20.9 0.00 0.00 0.00 38 1010.5
20260507194754 13 272 14.5 17.7 0.00 0.00 0.00 38 1010.3
20260507194250 13 277 4.8 22.5 0.00 0.00 0.00 40 1010.5
20260507193747 14 303 11.3 17.7 0.00 0.00 0.00 38 1010.6
20260507193243 13 277 11.3 17.7 0.00 0.00 0.00 40 1010.7
20260507192740 13 246 22.5 27.4 0.00 0.00 0.00 37 1010.7
20260507192236 13 243 12.9 27.4 0.00 0.00 0.00 37 1010.7
20260507191732 12 257 12.9 17.7 0.00 0.00 0.00 42 1010.9
20260507191230 12 254 12.9 16.1 0.00 0.00 0.00 39 1010.7
20260507190726 12 282 14.5 20.9 0.00 0.00 0.00 41 1010.6
20260507190225 13 276 17.7 27.4 0.00 0.00 0.00 39 1010.8
20260507185723 12 279 12.9 22.5 0.00 0.00 0.00 41 1010.8